TimeCDT,TemperatureF,Dew PointF,Humidity,Sea Level PressureIn,VisibilityMPH,Wind Direction,Wind SpeedMPH,Gust SpeedMPH,PrecipitationIn,Events,Conditions,WindDirDegrees,DateUTC
12:57 AM,69.1,51.1,53,29.99,10.0,SSW,15.0,-,N/A,,Clear,200,2013-05-15 05:57:00
1:57 AM,68.0,50.0,52,29.98,10.0,South,15.0,-,N/A,,Clear,190,2013-05-15 06:57:00
2:57 AM,68.0,48.9,50,29.98,10.0,South,16.1,-,N/A,,Clear,190,2013-05-15 07:57:00
3:57 AM,66.9,50.0,54,29.98,10.0,SSW,15.0,-,N/A,,Clear,200,2013-05-15 08:57:00
4:57 AM,66.9,51.1,57,29.97,10.0,SSW,11.5,-,N/A,,Clear,200,2013-05-15 09:57:00
5:57 AM,66.0,52.0,60,29.98,10.0,South,13.8,20.7,N/A,,Clear,190,2013-05-15 10:57:00
6:57 AM,66.0,53.1,63,29.99,10.0,South,13.8,-,N/A,,Clear,190,2013-05-15 11:57:00
7:57 AM,69.1,57.9,68,29.99,10.0,South,16.1,-,N/A,,Clear,190,2013-05-15 12:57:00
8:57 AM,72.0,61.0,68,30.00,10.0,South,16.1,21.9,N/A,,Clear,190,2013-05-15 13:57:00
9:35 AM,71.6,62.6,73,30.03,10.0,SSW,17.3,24.2,N/A,,Mostly Cloudy,200,2013-05-15 14:35:00
9:41 AM,73.4,62.6,69,30.02,10.0,South,18.4,21.9,N/A,,Scattered Clouds,190,2013-05-15 14:41:00
9:57 AM,73.9,63.0,68,29.98,10.0,South,15.0,-,N/A,,Partly Cloudy,190,2013-05-15 14:57:00
10:57 AM,73.9,64.0,71,29.99,10.0,SSW,9.2,-,N/A,,Scattered Clouds,200,2013-05-15 15:57:00
11:57 AM,75.0,64.0,69,29.98,10.0,SW,15.0,-,N/A,,Scattered Clouds,220,2013-05-15 16:57:00
12:34 PM,75.2,64.4,69,30.02,10.0,South,20.7,24.2,N/A,,Mostly Cloudy,190,2013-05-15 17:34:00
12:57 PM,73.0,64.0,73,29.99,10.0,SSW,15.0,-,N/A,,Overcast,200,2013-05-15 17:57:00
1:57 PM,73.9,64.0,71,29.96,10.0,South,15.0,-,N/A,,Mostly Cloudy,180,2013-05-15 18:57:00
2:02 PM,73.4,64.4,73,29.99,10.0,South,12.7,-,N/A,,Scattered Clouds,170,2013-05-15 19:02:00
2:57 PM,73.9,64.9,73,29.95,10.0,SSW,11.5,-,N/A,,Mostly Cloudy,210,2013-05-15 19:57:00
3:03 PM,73.4,64.4,73,29.98,10.0,SSW,8.1,-,N/A,,Mostly Cloudy,200,2013-05-15 20:03:00
3:57 PM,71.1,64.0,78,29.95,10.0,SSW,12.7,-,0.00,Rain-Thunderstorm,Light Rain,210,2013-05-15 20:57:00
4:24 PM,64.4,62.6,94,29.99,6.0,SSW,13.8,21.9,0.06,Rain-Thunderstorm,Thunderstorms and Rain,210,2013-05-15 21:24:00
4:27 PM,64.4,62.6,94,29.99,5.0,South,11.5,-,0.12,Rain-Thunderstorm,Heavy Thunderstorms and Rain,190,2013-05-15 21:27:00
4:32 PM,64.4,62.6,94,29.98,2.0,SW,4.6,-,0.26,Rain-Thunderstorm,Heavy Thunderstorms and Rain,230,2013-05-15 21:32:00
4:36 PM,64.4,62.6,94,29.98,1.8,West,4.6,-,0.31,Rain-Thunderstorm,Heavy Thunderstorms and Rain,270,2013-05-15 21:36:00
4:39 PM,64.4,62.6,94,29.98,2.5,WNW,4.6,-,0.32,Rain-Thunderstorm,Heavy Thunderstorms and Rain,290,2013-05-15 21:39:00
4:43 PM,64.4,62.6,94,29.98,4.0,WNW,3.5,-,0.32,Rain-Thunderstorm,Light Thunderstorms and Rain,300,2013-05-15 21:43:00
4:57 PM,64.4,62.6,94,29.97,3.0,Calm,Calm,-,0.39,Rain-Thunderstorm,Rain,0,2013-05-15 21:57:00
4:59 PM,64.0,63.0,96,29.94,3.0,NE,3.5,-,0.40,Rain-Thunderstorm,Rain,40,2013-05-15 21:59:00
5:05 PM,64.4,62.6,94,29.97,5.0,ENE,4.6,-,0.02,Rain,Rain,60,2013-05-15 22:05:00
5:23 PM,64.4,62.6,94,29.97,10.0,East,8.1,-,0.03,Rain,Light Rain,100,2013-05-15 22:23:00
5:30 PM,64.4,64.4,100,29.97,9.0,SE,5.8,-,0.04,Rain,Light Rain,130,2013-05-15 22:30:00
5:47 PM,64.4,64.4,100,29.96,10.0,East,8.1,-,0.04,,Overcast,100,2013-05-15 22:47:00
5:57 PM,64.4,64.4,100,29.95,10.0,East,6.9,-,0.04,,Overcast,90,2013-05-15 22:57:00
5:59 PM,64.9,64.0,97,29.92,10.0,East,6.9,-,0.04,,Overcast,90,2013-05-15 22:59:00
6:44 PM,66.2,64.4,94,29.94,10.0,East,9.2,-,N/A,,Mostly Cloudy,100,2013-05-15 23:44:00
6:57 PM,66.0,64.0,93,29.91,10.0,East,9.2,-,N/A,,Mostly Cloudy,100,2013-05-15 23:57:00
7:23 PM,64.4,64.4,100,29.94,10.0,East,6.9,-,N/A,,Overcast,90,2013-05-16 00:23:00
7:52 PM,66.2,64.4,94,29.95,10.0,East,3.5,-,N/A,,Overcast,90,2013-05-16 00:52:00
7:57 PM,64.9,64.0,97,29.92,10.0,East,4.6,-,N/A,,Overcast,90,2013-05-16 00:57:00
8:13 PM,64.4,64.4,100,29.95,10.0,ESE,4.6,-,N/A,,Overcast,110,2013-05-16 01:13:00
8:57 PM,64.9,64.0,97,29.91,8.0,ESE,5.8,-,N/A,,Scattered Clouds,120,2013-05-16 01:57:00
9:57 PM,64.9,64.0,97,29.92,9.0,ESE,5.8,-,N/A,,Scattered Clouds,120,2013-05-16 02:57:00
10:57 PM,64.9,63.0,93,29.88,6.0,ESE,6.9,-,N/A,,Partly Cloudy,120,2013-05-16 03:57:00
11:57 PM,64.0,63.0,96,29.87,6.0,SE,6.9,-,N/A,,Clear,140,2013-05-16 04:57:00